Regional Weather Roundup
Issued by NWS Goodland, KS

Home | Current Version | Previous Version | Graphics & Text | Print | Product List | Glossary On
Versions: 1 2 3 4 5 6 7 8 9 10 11 12 13 14 15 16 17 18 19 20 21 22 23 24 25 26 27 28 29 30 31 32 33 34 35 36 37 38 39 40 41 42 43 44 45 46 47 48 49 50
000
ASUS43 KGLD 240908
RWRGLD

GOODLAND FORECAST AREA HOURLY WEATHER ROUNDUP
NATIONAL WEATHER SERVICE GOODLAND KS
300 AM MDT FRI MAR 24 2017

...OFFICIAL OBSERVATIONS...

CITY           SKY/WX    TMP DP  RH WIND       PRES   REMARKS
GOODLAND KS    CLOUDY    51  49  92 NE25G32   29.60F
HILL CITY KS   MOCLDY    56  55  97 E8        29.62F
IMPERIAL NEB   LGT RAIN  48  46  93 N26G35    29.71F FOG
MCCOOK NEB     NOT AVBL
AKRON CO       HVY RAIN  41  39  93 N29G38    29.75F FOG
BURLINGTON CO  CLOUDY    49  48  97 NE35G44   29.60R
LIMON CO       LGT RAIN  39  39 100 N37G47    29.66F FOG
$$

...UNOFFICIAL OBSERVATIONS...

CITY           SKY/WX    TMP DP  RH WIND       PRES   REMARKS
LENORA KS        N/A     55  32  41 NE6         N/A
NORTON KS      CLOUDY    55  50  82 N14G20    29.63F
SHARON SPRINGS   N/A     52  48  87 S7          N/A
TRENTON NEB      N/A     50  32  50 N12         N/A
YUMA CO        TSTM      41  41 100 N28G40    29.70F
$$



USA.gov is the U.S. government's official web portal to all federal, state and local government web resources and services.